Tracking 18796 objects as of 19-September-2017
HD Live streaming from Space Station
objects crossing your sky now

SGSAT

Track SGSAT now!
10-day predictions
SGSAT is classified as:


NORAD ID: 42703
Int'l Code: 1998-067LL
Perigee: 390.9 km
Apogee: 393.4 km
Inclination: 51.6 °
Period: 92.3 minutes
Semi major axis: 6763 km
RCS: Unknown
Launch date: November 20, 1998
Source: United States (US)
Launch site: TYURATAM MISSILE AND SPACE COMPLEX (TTMTR)
Uplink (MHz):
Downlink (MHz): 437.450
Beacon (MHz):
Mode: 9600bps FSK
Call sign:
Status:

aabbcc
Your satellite tracking list
Your tracking list is empty





NASA's NSSDC Master Catalog

Two Line Element Set (TLE):
1 42703U 98067LL  17262.42846991  .00030654  00000-0  36391-3 0  9990
2 42703  51.6365 285.5101 0001863 333.5901  26.4997 15.60906668 19541
Source of the keplerian elements: AFSPC